RH
27 29 39 52 76 100 105 96 93 93 85 73 66 69 77 78 71 64 60 58 61 68 71 71 71 69 64 62 57 51 47 45 44 43 42 44 39 23 15 23 31 33 28 21 13 9 8 7 7 7 6 11 19 20 15 10 8 5 5 5 4 4 3 3 5 4 5 7 5 4 6 5 6 7
42 50 43 45 74 100 103 100 99 96 88 76 67 70 79 80 73 65 55 50 57 66 68 70 73 74 74 69 62 56 52 52 50 46 48 48 35 19 21 33 36 31 24 15 10 9 8 8 9 8 9 16 26 30 23 15 11 7 6 6 4 4 3 4 8 7 6 8 7 5 5 5 5 6
58 74 63 51 72 97 102 102 100 96 92 82 70 68 77 83 80 73 58 47 53 63 66 69 74 78 78 72 65 60 57 57 54 52 55 48 29 22 32 39 35 26 18 12 9 9 9 9 10 12 16 21 29 37 35 25 18 11 7 7 4 4 4 4 11 15 11 10 11 7 5 5 4 5
56 74 81 77 80 91 100 104 104 99 95 88 77 71 76 84 85 76 62 51 52 61 67 69 75 83 79 72 70 67 63 62 59 58 57 42 26 31 41 38 29 20 13 10 10 9 10 12 13 16 24 31 35 42 46 38 28 18 10 8 5 5 5 3 9 17 14 11 12 9 5 5 5 4
49 55 72 88 97 101 97 95 99 101 96 90 83 78 78 81 80 73 65 58 53 57 67 72 81 90 82 73 75 73 68 67 66 64 53 34 29 41 42 32 22 15 11 11 9 11 14 17 19 22 31 40 43 49 54 47 37 27 15 9 6 5 5 4 6 13 14 11 11 11 10 9 8 5
53 50 55 70 88 95 90 89 97 97 90 87 86 85 83 80 79 76 71 64 55 51 58 69 82 91 86 78 80 79 73 71 73 65 45 31 37 45 37 25 18 12 11 10 10 14 19 22 28 35 42 47 49 52 55 50 43 36 23 11 7 6 6 5 5 9 15 15 12 16 23 26 21 13
54 49 49 54 60 64 67 81 98 101 91 86 86 90 90 85 82 81 75 66 52 39 39 54 72 86 90 87 88 88 79 75 74 58 37 36 45 41 28 19 14 11 11 11 13 18 23 28 37 44 50 55 56 57 57 52 45 40 32 17 7 7 7 5 5 6 13 19 17 21 37 51 53 35
54 44 40 41 43 47 50 55 67 83 91 91 89 88 85 82 82 82 73 55 37 24 25 43 67 84 92 94 97 94 83 78 70 48 37 45 45 32 21 15 12 11 11 13 17 23 27 33 42 49 54 58 62 64 62 57 48 40 37 23 9 7 7 6 6 4 9 18 24 33 46 65 84 63
64 52 44 40 38 40 47 48 42 47 66 79 83 83 82 84 81 70 52 32 21 21 26 42 66 84 93 97 99 96 85 76 60 42 43 49 37 23 17 13 11 11 12 16 24 31 35 42 50 55 58 61 65 66 61 57 51 43 40 28 12 8 7 7 6 4 7 12 29 56 61 69 95 80
75 67 57 50 46 38 39 53 50 36 38 47 54 64 72 70 58 41 27 20 21 27 34 50 70 83 92 98 98 95 85 67 47 40 47 44 27 18 15 12 12 12 14 21 30 38 46 53 56 58 62 66 65 59 48 41 40 41 42 32 16 8 7 7 5 5 8 7 31 75 84 82 100 91
79 74 61 51 48 39 33 49 59 46 35 32 32 38 42 37 29 22 20 21 26 33 46 64 76 83 93 98 97 91 75 55 43 45 47 35 21 16 13 11 12 13 18 28 38 48 56 59 58 60 66 63 54 44 33 26 24 28 38 35 20 9 6 8 6 5 7 6 32 82 99 97 101 97
75 72 61 49 46 47 48 57 63 55 41 34 30 27 25 23 21 20 21 24 30 40 57 74 81 88 98 99 93 81 61 49 49 49 41 27 18 15 13 11 13 16 25 38 50 58 59 59 60 63 62 54 46 41 32 24 18 17 27 32 23 10 6 8 6 4 7 5 33 84 103 101 100 99
75 68 57 52 53 63 73 75 71 60 46 36 30 25 23 22 21 22 24 25 33 49 68 80 87 95 101 96 83 67 55 53 52 42 30 21 16 14 11 12 16 25 38 50 59 60 57 57 60 62 60 57 64 68 58 43 26 15 18 27 24 12 6 9 5 5 8 3 30 83 103 100 101 100
79 74 63 61 63 70 82 84 77 63 47 37 30 24 23 23 23 25 25 28 42 62 75 84 93 100 99 88 71 59 56 55 44 31 22 18 15 12 11 12 21 41 59 62 59 57 56 58 57 57 60 69 86 93 81 61 40 21 14 20 24 13 5 9 5 4 8 3 29 82 103 100 101 100
85 84 75 74 73 73 81 86 78 62 46 36 29 24 24 23 25 26 26 35 56 72 81 90 100 102 89 72 62 59 57 47 34 24 20 16 13 12 12 12 23 54 73 64 52 50 56 61 55 52 66 87 98 94 77 62 50 33 16 13 21 15 5 8 6 3 7 5 25 76 104 102 98 100
94 89 84 86 80 76 84 87 76 60 45 35 28 26 25 25 25 26 31 49 69 81 89 97 102 93 71 59 60 60 50 37 27 22 17 15 13 11 12 15 28 58 72 59 48 49 57 61 52 53 78 95 93 86 79 68 55 39 19 10 17 16 6 7 7 3 7 5 19 66 101 102 97 100
96 90 91 94 86 82 86 84 73 59 44 35 30 28 27 27 26 28 41 63 79 85 90 94 91 75 56 54 60 53 40 29 23 19 16 14 12 10 14 22 38 65 77 65 52 48 53 57 52 60 82 88 84 90 90 73 50 33 19 10 13 14 7 7 7 3 6 7 16 56 97 103 95 97
97 94 97 103 98 89 83 78 72 59 44 36 32 29 29 28 27 36 56 77 86 89 91 87 74 59 54 58 57 44 33 25 20 18 15 12 12 12 17 30 52 77 86 73 55 43 44 53 60 74 89 89 89 94 83 58 35 22 14 9 11 12 8 6 7 4 5 8 13 44 90 106 91 88
102 99 103 108 98 82 73 73 70 57 44 38 34 31 31 29 35 55 76 88 92 94 90 75 59 56 60 60 49 36 28 24 20 17 14 12 12 13 20 42 67 81 81 74 59 41 41 58 75 91 101 95 86 81 63 37 20 13 9 8 9 10 8 6 7 5 5 9 13 32 79 108 93 82
100 101 108 103 83 66 65 70 68 55 44 39 35 33 33 38 55 79 90 94 95 91 79 65 59 63 62 52 40 31 26 23 19 15 13 12 13 17 29 51 68 74 78 81 65 43 47 72 86 92 97 88 70 65 54 27 9 8 8 6 8 9 7 6 7 6 5 10 13 26 67 103 93 79
102 106 103 88 68 58 62 68 66 54 43 38 38 39 44 58 77 92 96 97 94 81 68 64 66 65 55 44 36 28 23 22 18 14 14 13 15 24 39 54 63 72 90 95 69 46 61 86 89 85 85 72 53 51 46 21 6 8 7 5 8 8 6 6 6 6 7 9 12 24 62 97 88 75
99 91 76 60 50 53 64 71 64 49 43 45 48 52 65 80 91 97 99 95 85 73 68 69 67 58 48 40 32 26 24 21 16 15 14 13 19 31 47 60 62 72 97 98 67 56 78 93 88 78 66 47 35 35 31 15 7 8 6 6 8 6 6 7 6 7 8 7 10 23 59 90 81 71
80 64 50 41 37 48 68 71 56 46 50 58 63 72 85 94 98 100 98 88 77 73 73 69 61 52 44 36 29 26 24 20 16 16 14 15 23 35 55 69 66 74 96 90 64 68 89 90 84 78 53 24 16 21 17 10 7 7 6 6 7 6 6 6 6 8 8 7 7 18 50 80 76 70
58 54 54 53 52 61 71 63 50 50 59 69 80 91 97 100 101 99 92 84 78 76 72 64 56 49 41 34 30 27 24 20 18 16 14 17 26 40 59 71 75 88 99 83 69 80 89 82 89 97 68 24 7 14 14 9 7 7 6 6 6 7 6 5 7 8 7 8 6 10 40 69 70 72
60 67 76 79 79 75 65 53 49 57 70 84 95 100 100 101 100 93 86 84 80 74 67 60 53 46 39 34 32 28 24 22 18 15 16 20 29 47 65 73 85 98 93 80 83 88 81 80 98 104 72 25 5 11 14 9 7 6 6 7 7 7 6 5 9 8 6 9 6 5 30 58 64 73
80 87 92 90 80 66 51 48 58 71 87 98 100 100 101 101 96 90 87 84 77 69 64 58 51 45 40 36 34 30 25 22 19 16 17 20 33 55 72 78 86 87 78 83 97 90 75 87 107 95 55 19 10 15 14 10 9 7 6 8 7 7 7 5 8 9 6 7 6 4 23 48 59 74
93 97 91 74 60 50 48 59 77 91 99 101 99 101 102 98 95 93 87 79 73 67 63 56 50 46 41 38 36 31 26 24 21 19 17 22 39 63 78 84 82 75 73 88 97 85 77 93 107 86 43 14 13 20 17 13 11 7 9 11 8 6 7 6 7 9 6 6 6 6 17 39 56 73
99 88 68 54 51 56 66 83 97 101 100 100 101 103 101 98 97 93 83 75 71 66 61 56 51 46 42 42 39 32 28 26 23 20 18 25 44 67 83 89 82 69 69 80 88 87 87 97 104 83 40 14 18 25 22 18 15 11 11 11 8 7 7 7 8 8 6 7 8 6 13 32 52 71
83 64 56 61 70 78 88 99 103 101 100 101 103 103 101 100 97 88 78 74 69 64 60 56 51 47 45 45 41 33 28 26 22 20 20 29 50 72 86 93 88 72 61 67 87 99 95 97 103 78 32 12 19 25 26 24 19 16 15 11 8 8 7 7 9 7 5 8 10 8 11 27 50 72
72 70 76 85 90 93 96 99 100 101 102 103 103 104 103 101 95 84 76 73 68 64 61 56 52 50 49 48 44 35 29 26 23 21 21 33 58 79 88 96 100 86 62 59 87 107 99 97 103 77 37 26 28 25 30 34 25 19 17 10 7 8 8 8 9 7 7 9 11 12 12 22 47 71
87 92 96 99 99 97 97 99 101 102 102 102 104 105 102 98 91 81 75 73 69 64 60 57 55 54 52 50 46 37 31 28 24 21 22 35 60 81 89 97 106 99 74 62 83 104 98 96 99 77 48 42 38 26 26 32 26 19 14 9 8 8 9 10 8 6 10 14 15 15 15 21 42 64
97 100 101 101 99 98 100 102 99 97 98 101 104 104 100 95 87 79 76 74 70 65 62 61 60 58 55 52 48 41 34 30 26 22 23 36 59 79 89 96 102 100 85 73 86 103 99 95 95 76 49 48 59 54 38 24 19 17 11 7 9 10 8 10 10 9 14 21 22 19 16 21 37 56
99 102 102 99 99 102 102 98 92 91 96 103 105 102 98 92 84 79 77 75 72 68 66 66 64 61 58 54 51 46 39 33 29 24 23 33 56 78 90 95 99 96 83 74 85 101 101 96 89 62 37 50 86 93 62 24 11 13 11 6 8 11 10 9 11 15 22 29 30 25 19 20 32 49
102 102 101 99 101 100 95 89 89 94 100 105 105 101 95 90 84 80 78 77 75 72 70 69 68 65 61 57 55 50 45 39 35 28 23 29 48 70 84 93 103 104 86 75 86 99 100 99 86 50 24 45 87 104 81 43 15 7 11 11 9 10 11 11 13 22 33 38 36 28 22 19 27 44
103 104 103 99 94 89 86 88 93 99 104 107 104 98 94 91 85 81 80 79 78 77 75 72 71 68 64 61 59 55 50 45 40 32 26 26 39 60 76 87 100 102 85 74 87 100 98 98 96 73 50 59 88 102 98 81 46 13 6 13 12 9 11 15 22 33 42 44 40 30 21 20 24 38
103 102 96 87 81 80 86 94 99 102 107 107 101 97 95 92 87 84 82 82 82 82 79 75 73 72 68 64 62 59 55 50 45 38 31 26 33 53 72 83 94 100 90 79 87 101 100 94 97 96 86 84 94 98 101 103 80 34 8 11 13 11 14 21 31 46 50 46 40 30 20 19 24 33
97 89 78 75 79 86 94 100 102 104 106 103 98 96 97 95 91 87 84 84 86 85 83 79 77 77 74 69 65 62 58 54 49 43 35 28 29 43 63 79 91 100 99 89 85 96 105 97 91 99 99 89 85 89 99 109 89 40 9 12 14 12 20 32 41 52 54 45 36 29 21 19 24 31
76 71 71 78 88 96 101 103 103 104 104 100 96 97 98 97 95 90 87 87 88 89 87 84 81 82 81 75 69 65 63 60 55 49 42 33 28 34 52 72 85 92 97 92 81 85 101 102 93 96 103 95 81 75 84 103 97 50 12 13 20 17 26 42 49 51 51 43 33 26 22 20 23 27
72 77 85 93 99 103 103 103 104 105 103 98 96 98 100 100 97 92 89 89 90 91 91 89 87 88 87 80 74 69 66 64 61 55 48 40 32 31 41 62 82 92 95 96 87 79 88 101 100 96 100 103 98 81 66 77 95 74 29 13 23 30 34 45 53 52 47 41 32 25 21 21 23 26
91 96 101 104 106 106 105 105 106 106 102 98 98 101 103 103 100 95 92 91 91 93 95 94 93 94 91 85 78 71 67 67 64 58 52 44 36 32 33 47 72 89 93 96 95 85 81 91 100 102 99 98 104 100 72 52 65 76 52 23 23 37 44 48 53 53 46 39 33 27 22 21 23 26
100 102 104 106 106 105 105 106 107 106 102 99 99 101 103 103 101 98 96 94 93 94 97 97 96 96 94 89 82 75 71 71 69 65 59 50 41 35 31 34 53 76 89 94 97 94 87 83 89 100 103 98 97 104 94 65 51 60 61 42 29 37 49 52 53 53 49 40 32 27 23 21 22 25
103 104 106 106 105 105 105 106 106 105 102 97 97 99 100 100 101 102 101 99 97 97 98 98 97 97 97 93 87 80 75 73 73 72 69 61 49 40 35 32 37 55 79 93 97 96 92 87 86 92 101 102 99 100 104 95 70 51 49 49 40 38 48 56 55 53 50 41 32 26 22 21 21 24
105 105 105 104 102 102 103 104 104 103 99 95 95 97 97 98 101 104 103 102 101 101 100 98 97 99 100 98 92 85 79 76 75 74 73 69 59 48 42 38 33 37 56 80 96 99 95 90 90 94 97 101 101 98 99 105 95 64 44 46 50 46 47 54 57 54 49 40 31 25 22 20 20 23
100 100 101 101 101 101 101 101 101 99 97 95 95 96 97 98 100 102 102 102 104 105 102 99 98 101 103 102 96 90 83 79 78 76 75 74 69 58 48 43 39 33 38 55 79 98 102 96 92 96 99 98 97 95 94 101 104 85 55 45 51 53 51 53 56 55 49 40 30 24 21 21 21 21
98 98 98 99 100 101 101 102 101 99 96 95 94 95 97 99 101 101 101 102 105 107 104 100 98 101 104 104 101 95 88 83 79 78 77 76 74 67 56 47 44 40 36 38 53 76 99 104 98 96 99 98 96 98 99 99 104 100 77 53 48 53 55 55 56 55 50 41 31 24 21 20 20 21
Wind_Speed
52 51 51 50 48 49 52 52 49 48 48 48 48 48 49 51 53 54 55 54 54 55 56 58 59 62 65 67 68 69 71 71 70 69 70 70 71 73 74 75 75 77 78 80 80 80 78 76 74 70 66 60 57 55 53 50 51 54 56 58 64 70 76 83 91 99 106 111 115 115 114 115 115 113
51 50 51 52 51 51 55 56 53 52 51 51 50 50 51 53 54 56 56 56 55 56 58 59 60 62 65 66 68 70 71 71 72 71 71 72 73 74 74 74 76 77 79 80 80 78 75 71 68 66 62 55 51 49 48 47 46 49 53 56 60 66 73 80 86 94 102 108 112 115 115 116 115 114
52 51 51 52 53 54 57 58 56 55 54 54 53 53 53 54 55 57 58 57 57 59 60 60 61 62 64 66 68 70 71 71 73 73 73 73 74 74 74 75 76 78 78 78 78 75 71 68 64 61 58 53 48 47 47 46 45 45 50 53 57 62 70 78 83 88 96 103 108 113 115 115 115 115
53 53 52 52 53 56 58 58 58 57 56 56 56 56 55 55 56 57 59 59 59 61 63 63 62 63 64 66 68 70 71 72 74 74 74 74 74 73 74 75 77 77 77 75 74 71 67 64 60 56 53 51 49 47 48 49 47 45 46 51 55 59 66 75 82 85 91 98 104 110 113 114 115 116
55 55 54 54 54 56 58 58 59 58 58 58 58 58 57 57 57 58 60 61 61 63 65 65 63 63 65 66 68 70 71 73 75 75 75 74 73 73 74 75 76 76 74 72 70 67 63 60 56 52 50 50 51 50 51 51 50 48 44 48 53 57 64 72 79 84 86 91 98 105 109 111 113 115
56 55 55 55 56 57 58 59 59 60 60 60 60 59 59 58 58 60 62 63 63 65 66 66 63 63 66 67 69 70 71 73 75 76 75 73 72 73 75 75 75 73 71 68 66 63 59 55 52 50 49 49 51 53 54 54 53 51 46 45 51 55 62 69 76 82 84 86 93 99 105 108 109 112
59 57 56 56 57 59 60 60 61 61 62 62 61 60 60 60 60 61 63 64 65 65 66 65 63 64 66 67 69 70 72 74 76 75 74 72 72 74 74 74 73 71 67 64 62 58 54 51 49 48 49 50 51 53 55 56 56 54 48 44 49 54 61 66 73 80 82 84 88 94 102 104 103 107
64 62 59 57 57 58 60 61 62 63 63 63 62 61 61 61 62 63 65 65 65 64 64 63 63 64 65 66 68 70 72 74 75 74 72 71 73 73 74 73 71 67 63 60 58 54 50 48 48 49 50 52 53 54 55 56 57 55 50 45 47 53 59 64 70 77 81 84 86 91 102 102 97 103
68 67 65 63 62 61 60 61 62 62 63 64 64 64 63 64 64 65 64 63 62 63 63 62 62 63 64 65 66 69 73 74 74 72 71 71 72 72 72 71 68 63 58 56 54 51 48 48 49 51 53 54 56 57 57 56 56 56 52 46 45 52 58 62 69 75 79 84 86 93 103 100 93 99
68 68 68 67 68 66 62 61 62 62 62 63 63 63 64 64 63 61 60 60 61 62 62 62 61 62 64 65 65 69 73 74 72 70 69 70 70 70 70 69 64 59 54 52 50 47 46 49 51 53 55 57 59 59 59 57 55 54 52 48 44 49 57 62 67 73 78 83 87 97 103 96 91 94
66 65 64 63 63 62 60 60 62 62 61 61 60 60 59 59 58 56 57 59 60 61 62 61 61 62 63 64 65 69 72 71 71 70 69 69 68 69 69 66 60 55 51 49 47 46 47 50 52 54 56 57 58 58 57 55 53 52 51 49 45 47 55 61 66 72 78 83 90 101 104 96 92 92
64 61 57 55 55 55 56 58 61 61 60 59 57 56 56 55 54 54 56 58 59 60 60 59 60 61 62 64 67 69 69 68 69 70 71 69 66 66 66 62 56 51 47 45 44 46 49 50 52 55 54 54 54 55 56 54 51 49 50 49 45 46 54 60 65 72 79 83 93 106 106 98 96 92
61 56 52 50 50 52 54 57 60 60 59 57 56 54 54 53 53 54 55 57 58 58 58 58 59 60 60 64 66 66 65 66 68 69 70 69 66 65 62 57 51 47 44 45 44 46 49 50 51 52 50 49 50 53 56 55 50 46 47 48 46 46 52 59 64 72 79 84 96 110 108 102 99 93
58 53 50 49 50 52 54 57 58 58 57 56 54 53 52 52 52 53 55 56 56 56 57 57 57 58 60 63 63 62 62 65 67 68 69 68 65 64 60 52 46 43 43 46 46 46 49 51 51 50 47 46 48 52 55 56 52 46 44 46 46 45 51 59 64 72 80 86 100 113 110 105 103 95
55 51 50 50 51 52 54 55 56 55 55 53 52 51 51 51 52 53 53 54 54 55 55 55 55 58 60 60 59 60 61 63 65 66 67 66 63 61 57 49 41 39 43 48 47 45 48 52 51 47 45 46 49 54 57 56 54 49 44 44 45 45 50 59 64 72 81 88 102 115 113 108 105 98
52 51 51 52 53 53 53 54 53 52 52 51 50 50 50 50 52 52 52 52 53 53 53 53 55 57 58 56 56 58 60 61 62 62 63 63 61 58 54 46 39 39 44 49 48 45 47 52 50 44 44 48 51 54 56 55 55 52 46 43 44 45 50 58 65 72 81 89 103 117 116 111 108 104
51 51 52 53 54 53 52 52 51 50 49 49 48 48 49 50 51 51 51 51 51 51 52 53 55 56 55 54 55 58 59 60 60 60 60 59 58 55 50 42 37 39 46 51 50 46 46 49 47 42 45 50 51 53 56 56 55 53 48 44 44 45 50 58 65 72 81 91 104 118 120 114 111 110
51 52 53 53 52 50 50 50 49 48 48 47 47 47 49 50 50 49 50 50 50 50 52 54 54 53 52 53 55 57 59 59 60 60 58 56 55 51 45 38 36 40 48 53 53 48 43 43 44 44 48 52 51 52 55 56 55 53 48 44 44 46 51 58 65 73 82 92 105 118 121 114 112 115
50 49 48 47 47 46 46 47 46 46 46 45 45 47 48 48 48 47 47 47 47 49 51 52 51 50 51 52 54 56 57 57 57 56 55 54 52 47 39 34 36 42 48 54 56 49 41 41 45 47 51 53 51 51 53 53 53 52 48 43 44 47 52 59 66 73 82 92 104 118 122 114 111 116
46 43 41 41 42 43 44 45 44 44 44 44 45 46 46 45 45 45 45 45 46 48 49 48 47 48 49 51 53 54 55 55 54 52 51 51 48 42 35 32 35 42 48 54 57 50 41 43 48 48 50 52 49 47 50 51 51 50 45 42 44 48 53 60 67 73 83 92 103 118 123 115 111 116
38 36 35 37 39 41 42 42 43 43 42 43 43 43 43 42 42 42 42 43 45 45 45 45 45 47 48 50 52 53 54 54 52 49 48 47 44 37 32 32 35 40 46 53 55 49 43 47 52 50 49 50 47 45 48 50 49 46 42 40 43 48 54 62 67 74 83 91 102 117 123 117 113 117
27 26 28 32 35 38 40 41 41 41 40 40 40 40 40 40 39 40 41 42 42 42 42 42 44 46 48 49 51 52 53 52 50 48 47 44 39 33 31 33 35 38 45 51 50 47 46 50 52 51 47 43 42 46 49 47 43 41 40 40 43 48 55 62 68 75 83 90 101 115 122 118 114 120
21 24 28 32 36 38 39 39 39 38 36 36 37 37 37 37 37 38 38 38 38 39 40 41 43 45 47 49 50 52 51 48 47 47 46 42 36 31 30 34 37 39 43 47 47 46 49 50 50 50 48 40 35 41 48 43 36 37 38 38 42 48 55 63 69 75 82 90 99 113 122 118 117 123
26 29 32 35 38 39 39 37 35 33 32 33 34 34 34 35 35 35 35 35 35 36 38 40 42 45 46 48 49 50 48 46 45 45 45 40 33 29 29 34 38 39 41 44 46 47 49 49 48 51 53 45 33 33 41 39 32 33 35 36 41 49 56 63 69 74 81 89 97 111 120 119 120 126
31 31 32 34 36 37 35 32 31 29 30 31 32 32 32 32 32 32 31 32 33 35 37 39 41 43 45 46 48 47 46 45 44 44 42 37 31 28 29 33 36 38 39 42 45 47 47 47 47 49 51 47 36 30 32 33 29 29 31 34 41 49 56 64 69 74 80 88 96 108 117 120 122 127
29 29 30 32 33 32 30 28 28 28 28 29 29 29 30 29 28 29 29 30 32 34 36 38 40 41 43 44 45 45 45 45 45 44 41 35 29 28 30 33 35 35 35 38 44 47 45 44 47 48 45 41 35 29 26 26 26 26 29 34 42 49 57 64 69 74 80 87 94 104 115 121 124 128
25 26 28 28 28 27 26 25 26 26 26 27 27 27 26 25 25 26 27 28 31 32 35 37 38 39 40 42 43 43 43 44 45 45 41 33 28 27 30 34 35 32 31 36 41 44 44 43 45 47 43 37 32 26 23 22 22 24 27 34 42 50 57 64 68 73 80 86 93 101 112 121 125 129
22 23 24 23 23 23 23 23 24 24 25 25 24 23 23 23 24 24 25 28 30 32 34 36 37 38 39 40 41 40 40 41 43 44 40 31 26 27 30 33 34 30 28 33 38 41 43 43 44 44 41 34 28 23 20 19 19 22 27 33 41 49 57 63 67 72 79 85 91 99 109 119 125 129
20 21 21 20 20 21 21 21 22 23 23 22 21 21 21 22 22 23 25 27 29 31 34 35 36 38 38 39 39 38 38 38 40 41 38 30 25 27 30 33 34 30 27 31 37 39 41 41 43 42 38 31 25 20 16 15 16 20 25 32 41 49 56 61 66 71 78 84 89 96 105 115 123 128
19 19 18 18 19 20 20 20 21 21 20 19 19 19 20 20 20 22 24 27 29 31 33 35 36 37 38 38 38 37 36 36 38 38 35 27 24 26 30 33 34 31 28 31 35 38 39 40 41 40 37 31 25 19 13 11 12 16 23 31 40 48 55 59 64 69 76 81 85 91 101 111 121 126
18 17 17 18 19 19 19 20 20 19 18 17 18 19 19 19 19 22 24 26 29 31 33 34 36 37 37 38 37 36 35 35 36 37 32 25 22 25 28 30 32 31 30 32 36 36 37 39 39 38 35 28 21 17 13 7 7 12 20 29 39 47 53 57 61 66 72 78 81 87 96 107 117 124
16 16 17 18 18 18 19 19 18 17 16 17 18 18 18 18 19 22 24 26 29 30 32 34 36 36 37 37 36 35 34 34 34 35 32 24 21 23 26 28 29 29 28 31 36 35 35 38 38 35 32 26 22 23 20 11 3 7 17 27 37 45 50 54 59 64 68 73 77 82 92 103 113 119
15 16 18 18 18 19 19 17 16 16 16 17 17 17 17 17 19 21 24 26 28 30 32 34 35 36 36 36 35 35 34 33 33 34 32 25 20 22 24 26 28 27 25 27 32 31 31 35 36 31 28 24 24 25 23 15 6 3 14 25 35 42 47 51 57 62 65 68 71 76 86 97 108 116
15 18 18 18 18 18 17 16 15 15 16 16 17 16 16 17 19 21 24 26 28 30 32 34 35 35 35 34 34 33 33 33 33 33 32 26 20 20 22 24 27 27 24 24 29 28 27 32 33 30 25 23 23 25 24 18 9 5 14 23 32 39 44 49 54 59 61 63 65 70 80 91 103 114
16 18 18 18 17 16 15 14 14 15 15 16 16 16 16 17 19 22 24 26 27 29 32 33 34 34 33 32 32 31 31 32 32 32 32 28 22 19 20 22 24 24 22 22 25 26 24 27 30 29 25 22 23 26 27 23 13 6 14 21 29 36 43 48 53 56 57 58 60 64 74 86 98 110
16 18 17 17 15 14 14 13 13 14 15 16 16 16 16 18 20 22 24 26 27 29 32 33 34 34 33 32 30 29 29 29 30 30 31 30 24 20 19 20 22 23 21 21 22 23 22 23 26 27 25 22 20 22 25 24 15 5 14 20 27 35 42 47 51 53 52 54 56 60 70 82 93 104
16 16 16 15 14 13 13 13 13 15 16 16 16 16 17 18 20 22 24 25 27 29 32 33 34 34 33 32 30 29 28 27 28 28 29 29 26 21 19 19 20 21 21 20 19 20 20 20 22 24 23 19 16 16 18 17 12 4 13 20 26 34 41 45 49 50 49 49 52 56 65 77 87 97
14 14 14 13 12 12 12 13 14 15 16 16 16 16 17 19 20 22 24 26 28 30 32 33 34 34 33 31 30 29 28 27 27 26 26 28 27 23 19 18 19 20 20 18 17 17 18 19 19 19 19 18 17 14 12 11 9 5 11 19 26 33 40 44 46 47 46 46 48 52 60 71 80 89
11 11 11 11 11 11 12 14 15 15 16 16 16 16 18 19 21 22 24 26 28 30 32 33 34 34 33 31 29 28 27 26 26 25 24 25 26 24 20 18 17 18 19 18 15 15 16 17 16 15 15 17 19 17 12 8 7 5 10 19 26 32 37 42 43 43 43 43 45 49 55 64 73 82
8 8 9 9 11 12 13 14 15 16 16 16 16 17 18 19 21 23 25 27 29 30 32 33 33 34 33 31 29 27 26 25 25 25 24 23 23 23 20 17 16 16 17 17 15 14 14 15 14 12 10 11 14 17 14 9 5 4 9 18 25 30 35 39 41 41 40 40 42 46 52 59 67 76
6 8 9 11 12 13 14 15 16 16 17 16 16 17 18 20 22 24 26 28 29 31 32 33 33 33 33 31 29 27 26 25 24 25 24 23 22 22 21 17 16 16 15 15 15 13 12 12 11 9 6 5 8 12 13 9 4 3 9 17 24 29 32 36 38 38 38 39 40 44 49 55 62 70
6 8 9 11 13 14 15 16 17 17 17 17 17 18 19 20 22 24 26 28 30 31 32 33 33 33 33 31 29 27 26 25 24 24 24 23 22 21 21 19 16 15 15 14 14 13 11 10 9 6 4 3 6 9 9 7 3 2 8 15 22 27 31 33 35 36 37 38 38 41 46 51 57 65
5 6 8 9 11 13 14 16 17 17 17 18 18 18 19 21 23 25 27 29 30 31 32 33 33 33 32 31 29 27 26 25 24 23 23 23 22 21 20 20 18 15 14 14 13 12 11 10 8 6 3 3 5 6 6 4 3 2 8 15 21 26 30 32 34 35 36 38 38 39 42 47 52 60
4 6 8 10 11 13 14 15 16 17 18 18 18 19 20 21 23 26 28 30 31 32 32 33 33 33 32 31 29 28 26 25 24 23 22 22 21 20 19 19 19 17 14 13 14 13 11 10 9 7 6 6 5 6 6 6 5 5 8 14 20 24 28 32 33 35 36 38 39 39 40 42 46 53
7 10 11 12 13 14 15 15 16 17 18 19 19 19 21 22 24 26 29 30 31 32 32 33 33 32 32 31 29 28 27 25 24 23 22 21 20 20 19 18 18 17 15 13 13 14 13 11 10 9 8 7 6 5 7 8 9 9 9 13 19 24 27 31 33 34 36 38 39 40 40 41 43 47
Wind_Direction
266 266 264 263 262 264 266 267 267 267 267 269 270 271 272 273 274 276 278 280 282 284 286 288 290 291 293 294 295 295 296 296 296 297 298 298 299 299 299 299 300 300 300 300 300 300 300 299 297 295 292 288 284 283 282 279 274 269 260 250 241 233 228 224 221 219 217 216 215 215 216 217 217 217
265 266 266 263 262 263 265 265 265 265 266 268 269 270 271 273 275 276 278 280 282 283 285 288 290 291 292 294 295 296 296 297 298 299 300 300 301 301 300 300 301 301 301 301 301 301 300 298 296 293 290 287 284 285 287 285 280 272 262 252 242 233 228 224 222 220 218 216 215 214 214 215 215 215
264 265 266 265 263 263 265 265 265 265 266 267 268 269 270 272 274 275 277 280 282 284 286 288 289 290 292 294 295 295 296 298 299 301 302 302 302 302 301 302 302 302 302 302 301 301 299 297 294 290 288 288 287 288 291 292 289 279 265 255 244 234 228 224 221 220 219 217 214 213 212 213 213 214
262 263 264 266 265 265 265 266 265 266 266 266 267 268 269 271 273 275 278 281 284 285 287 288 289 290 292 293 294 295 297 299 300 302 303 303 303 302 302 302 302 303 303 302 301 300 298 295 292 289 289 290 290 291 293 295 296 289 271 257 246 235 229 225 220 219 219 217 215 212 211 211 212 212
261 261 262 264 266 266 267 267 267 268 268 268 268 269 271 272 274 276 279 283 285 287 288 288 289 290 292 293 294 296 297 299 301 303 304 303 302 302 302 303 303 303 303 302 301 299 296 293 291 290 290 291 290 291 293 294 296 295 280 260 247 237 230 226 221 218 218 217 216 213 209 208 210 211
261 261 261 262 264 266 267 268 269 270 271 271 271 271 273 274 276 278 281 283 286 288 288 288 289 290 292 293 294 296 297 300 302 304 303 303 302 302 303 303 303 303 303 302 299 296 293 290 290 291 293 292 292 291 292 292 293 294 287 266 249 239 232 227 222 218 217 216 216 213 208 205 207 209
261 262 262 263 265 266 266 267 268 270 271 272 272 272 273 275 277 279 282 285 287 288 287 288 289 290 291 293 294 296 298 300 303 303 303 303 302 303 303 303 304 304 303 301 297 294 290 289 290 293 295 295 294 292 290 290 290 290 289 272 251 240 233 228 222 218 215 214 214 212 207 203 203 207
261 262 263 264 266 268 268 268 268 268 270 271 272 273 274 276 278 280 283 285 286 287 287 288 289 290 291 293 295 297 299 301 303 303 302 302 303 303 303 304 304 303 302 298 295 291 288 290 293 296 297 297 296 294 289 288 286 285 286 276 255 241 234 228 223 218 213 212 212 210 205 201 201 205
262 263 264 265 267 269 269 269 269 269 269 270 271 273 274 276 278 280 283 285 285 287 288 288 289 290 291 293 295 297 299 301 302 301 302 302 303 303 303 304 304 303 300 296 292 290 290 293 296 297 299 297 295 293 289 286 283 281 281 276 259 243 235 228 222 218 212 209 208 206 203 199 199 203
262 263 265 266 268 268 267 267 269 269 269 270 272 273 274 276 278 280 282 284 285 286 287 288 289 290 291 293 296 298 299 301 301 301 302 303 304 304 304 304 304 302 298 293 290 290 292 294 297 298 298 296 293 291 289 285 281 278 276 274 261 244 235 229 222 217 212 208 206 202 199 196 197 200
262 263 265 266 267 266 264 264 267 268 269 270 272 273 274 275 277 280 282 283 284 286 287 288 289 290 292 294 296 298 300 301 301 301 302 303 304 304 304 305 303 299 295 291 290 292 293 294 297 298 296 294 291 289 287 284 280 276 272 270 261 244 235 229 222 216 210 206 203 199 195 194 194 196
261 261 262 264 266 265 263 263 265 267 267 269 271 272 273 275 278 280 281 283 284 285 287 288 289 290 292 295 297 299 300 300 301 301 302 303 304 304 305 305 302 297 292 290 290 291 292 295 298 298 296 294 291 288 286 284 280 273 269 267 260 245 235 229 222 216 209 204 200 195 193 193 192 193
257 257 259 262 265 266 264 264 265 266 267 267 269 270 272 275 278 279 281 282 284 285 287 288 289 291 294 297 298 300 300 300 301 302 302 304 305 305 305 304 300 294 291 289 289 292 294 297 299 297 295 294 291 289 288 286 281 272 265 264 259 245 234 228 222 215 208 203 197 193 192 192 190 191
252 253 257 261 263 264 264 264 264 265 266 266 267 269 272 274 277 278 281 283 284 286 287 288 290 292 296 298 299 300 300 300 301 302 303 305 306 306 306 304 297 291 289 289 290 293 296 299 299 296 294 292 290 288 286 285 284 276 263 260 257 245 233 227 221 214 207 202 196 193 192 192 191 192
248 251 255 258 261 263 263 263 263 264 264 265 266 268 271 274 276 278 281 283 284 286 287 288 291 294 297 298 298 299 300 300 302 304 305 306 307 306 305 303 296 289 287 288 291 296 299 299 298 296 294 291 288 286 286 286 286 280 267 258 254 244 232 225 220 213 207 202 196 193 192 192 191 193
246 250 254 256 259 260 260 261 262 262 262 263 265 267 271 273 276 278 280 282 284 285 286 289 293 295 296 298 299 299 300 302 304 305 306 307 307 307 305 302 297 290 287 289 294 300 301 299 298 296 292 290 289 290 290 289 286 281 270 257 250 241 230 223 219 212 206 202 197 194 194 194 193 194
247 250 251 253 255 256 257 259 261 261 261 262 264 267 270 272 275 278 280 282 283 284 287 291 294 296 297 298 299 300 301 303 305 306 307 308 308 307 305 300 296 292 291 293 297 302 303 300 299 297 294 294 296 296 293 288 282 277 269 256 246 238 228 221 217 211 205 201 197 195 194 196 196 196
245 246 245 246 248 252 255 258 259 260 260 261 264 266 269 272 275 278 280 281 283 286 290 293 295 297 298 299 300 301 303 306 308 308 309 309 308 307 304 299 295 294 294 295 298 304 309 304 301 301 300 300 300 297 292 287 280 274 266 254 243 233 225 219 215 210 204 201 198 196 195 196 198 197
239 238 238 240 244 250 255 257 258 259 259 261 263 266 268 272 275 277 279 281 284 289 292 295 296 298 299 301 302 304 307 309 309 309 310 310 309 307 302 297 295 295 296 297 301 310 316 309 304 306 304 302 301 296 291 285 277 271 263 251 239 230 222 216 212 208 203 201 198 196 196 197 198 198
232 232 235 239 245 250 254 256 258 259 259 260 263 265 269 272 275 277 279 282 287 291 294 296 298 299 300 302 304 306 308 308 308 310 311 311 310 306 301 296 295 297 299 301 305 314 320 313 309 310 306 302 300 296 290 281 273 268 261 248 236 227 219 213 210 206 202 200 198 197 197 197 198 198
228 231 235 241 247 251 254 256 257 257 258 260 263 266 269 272 274 277 281 285 290 293 295 297 299 300 301 304 306 308 309 309 310 313 314 313 310 305 299 296 298 302 304 304 308 317 322 317 314 312 307 304 302 296 287 278 271 265 258 244 232 224 216 210 207 204 201 200 199 197 197 197 199 198
229 235 239 245 251 255 256 256 256 256 257 260 263 266 269 271 275 279 284 288 292 294 296 298 299 301 303 306 308 310 311 312 314 317 318 315 310 303 299 300 303 307 307 306 310 319 322 319 316 313 310 308 305 297 286 277 269 262 252 238 227 220 213 208 204 202 200 199 199 198 197 198 199 199
240 249 252 254 257 259 257 255 253 254 256 259 263 266 269 273 277 281 286 290 293 295 297 299 301 304 306 309 311 312 313 315 318 320 319 316 309 303 301 304 308 311 310 309 314 321 322 321 320 320 318 315 307 296 286 278 268 257 246 233 222 215 209 205 202 200 199 199 199 198 197 198 199 198
252 257 258 257 257 256 254 251 251 253 256 259 263 266 270 274 279 283 288 291 293 296 298 301 304 307 309 311 313 314 316 318 321 321 320 316 309 304 305 309 313 315 313 312 317 323 324 323 326 328 325 319 309 293 284 278 267 251 240 228 217 211 206 202 200 199 198 199 199 198 197 198 199 198
251 253 254 253 251 250 249 248 250 253 256 259 263 267 271 275 280 285 288 291 294 297 301 304 307 308 310 312 315 317 318 319 322 324 322 316 309 306 310 313 316 317 314 314 319 324 326 326 329 331 327 321 313 298 284 276 263 246 233 222 213 207 203 200 198 197 198 198 199 198 198 198 199 198
248 249 249 248 247 246 246 247 249 252 255 260 264 268 272 277 282 286 289 292 296 300 303 306 307 309 312 315 318 319 320 321 324 326 324 317 309 309 312 314 318 317 315 317 322 325 328 330 331 332 331 325 317 306 291 277 260 242 227 217 209 204 200 198 196 196 197 197 198 198 198 199 200 199
248 249 248 246 244 243 243 244 247 251 256 260 263 267 273 279 283 286 290 295 298 302 305 307 308 312 315 318 319 320 322 324 327 328 325 318 311 311 313 315 318 319 319 322 325 326 329 332 333 334 336 333 324 313 297 278 257 237 223 213 206 201 197 196 195 196 196 196 197 198 198 199 200 199
249 248 246 243 240 240 240 242 246 251 254 257 261 268 276 281 284 288 293 297 301 304 306 308 311 315 317 319 320 322 323 325 327 327 324 317 312 312 314 316 319 321 324 327 328 327 329 333 336 338 340 338 330 318 300 278 255 235 221 211 204 199 195 194 194 195 195 196 197 198 199 200 200 199
248 244 241 238 237 238 241 244 246 248 250 255 264 272 278 281 285 290 296 299 303 306 308 311 315 317 319 321 322 322 323 325 328 328 323 317 313 314 316 319 321 323 327 332 332 329 330 335 339 342 345 347 342 329 309 282 256 235 221 210 202 196 193 193 193 194 194 195 197 198 199 200 200 199
241 238 236 235 236 238 239 240 240 243 249 258 268 274 278 282 287 293 298 302 305 308 311 315 318 320 321 322 321 322 324 326 330 330 324 316 313 315 319 322 323 323 328 337 338 333 333 339 344 346 351 354 352 344 329 296 261 236 219 209 200 194 191 191 192 193 194 195 196 198 199 201 201 201
234 234 233 232 232 232 231 232 236 244 253 262 269 275 279 284 290 296 301 304 308 311 315 319 321 322 322 321 321 323 325 328 332 333 327 317 312 315 319 323 326 326 329 338 342 338 336 341 347 351 353 356 359 2 358 330 269 235 217 205 197 191 190 190 190 192 193 194 196 198 199 201 201 201
232 230 229 227 226 227 229 233 240 249 257 264 271 276 281 286 293 298 303 307 310 314 319 322 323 323 322 322 323 325 327 329 333 335 331 320 312 315 319 322 328 329 328 335 342 341 338 343 349 353 355 2 15 19 14 8 330 226 210 200 193 189 188 188 189 190 191 194 196 198 200 201 202 202
231 227 226 225 225 229 234 239 245 252 259 267 273 278 282 288 295 301 305 309 313 318 322 323 323 323 323 323 324 326 327 331 335 337 335 325 313 315 319 322 328 329 325 333 344 345 341 345 353 357 359 10 26 26 18 18 28 187 194 191 188 187 185 186 187 189 190 193 196 199 200 202 202 203
229 228 229 230 231 235 240 244 248 255 262 269 274 279 284 290 297 302 306 311 315 320 322 323 323 324 324 324 326 326 328 331 335 338 337 330 318 316 320 324 329 329 326 333 346 350 346 349 358 6 9 19 37 38 30 29 41 135 174 181 184 183 183 184 185 187 190 192 196 199 201 202 203 203
232 235 236 237 238 241 243 246 250 257 265 271 275 280 285 292 298 302 307 312 317 320 322 322 323 324 325 326 327 327 328 330 333 337 338 334 323 318 321 326 330 332 329 332 344 351 350 352 3 15 22 32 46 47 39 33 39 114 159 173 180 180 180 182 184 186 189 192 195 200 201 202 203 204
238 241 242 243 244 244 244 247 253 261 268 272 275 280 287 293 299 303 307 313 317 319 320 322 324 325 327 328 328 327 327 330 332 335 338 336 327 317 319 325 330 335 335 333 340 349 351 353 4 17 24 32 46 54 49 38 33 97 155 166 176 178 179 180 182 185 188 192 195 199 201 202 203 204
242 245 247 247 246 244 244 250 258 265 270 273 276 281 288 294 299 304 308 312 316 318 320 322 325 327 328 329 328 327 327 328 331 333 336 337 332 321 315 321 328 334 337 334 336 345 350 354 4 14 18 24 38 56 60 48 35 89 159 164 172 177 178 179 182 184 188 192 196 198 201 202 203 205
249 250 250 247 245 246 251 258 264 268 271 274 277 282 288 294 300 304 308 312 315 317 319 323 326 328 329 329 328 328 327 327 330 332 334 337 336 327 315 315 322 331 336 335 333 338 346 353 2 11 17 24 33 43 57 61 56 91 160 167 171 176 178 179 182 185 188 192 196 198 200 202 203 205
253 251 250 249 251 255 260 263 267 269 271 275 278 282 288 295 301 306 309 311 313 315 319 322 326 328 329 329 328 328 326 326 328 330 332 334 337 332 319 310 313 323 333 336 333 334 340 346 355 5 12 19 26 30 36 54 70 104 163 171 172 176 179 180 183 185 188 192 195 197 200 202 203 206
250 253 257 261 263 265 266 267 268 270 272 275 278 282 288 296 302 307 310 311 312 314 317 321 325 327 329 330 328 327 326 325 325 327 329 330 334 335 328 313 304 310 323 332 333 332 335 339 347 359 3 3 11 19 24 36 67 121 167 175 176 177 179 181 183 186 188 191 194 196 198 201 203 206
262 269 272 273 272 272 272 270 270 271 274 276 279 283 289 297 303 308 310 311 312 314 317 320 324 327 328 329 329 327 327 326 324 325 327 328 330 335 335 325 308 300 309 323 329 329 329 330 335 349 358 344 348 4 15 26 50 139 171 179 180 180 181 182 184 185 188 190 193 196 199 201 203 206
282 286 285 284 281 278 277 275 274 275 275 277 281 285 291 298 304 307 310 311 312 314 317 319 323 326 327 329 329 327 326 326 324 323 324 326 327 330 334 334 323 303 296 306 318 323 323 319 318 329 352 347 335 344 358 9 8 177 175 178 183 184 184 184 185 185 187 189 192 196 199 201 203 206
294 305 308 305 300 293 288 282 280 279 279 280 284 287 292 298 303 307 310 311 312 314 316 318 321 325 326 328 329 328 326 325 324 322 321 322 324 325 328 332 332 318 296 288 297 310 316 311 306 303 298 298 308 311 313 320 316 222 178 176 183 187 187 187 187 187 187 188 190 193 197 200 203 206
322 328 327 324 317 309 300 291 286 284 283 283 286 289 293 299 304 307 309 310 311 312 315 318 320 324 325 326 327 327 326 324 323 321 319 318 319 321 321 323 328 328 314 291 282 288 299 304 301 290 275 267 272 277 269 262 257 233 192 179 182 188 189 189 190 190 190 190 191 192 194 197 200 204
334 332 327 323 317 311 307 300 294 290 287 287 289 293 296 300 304 307 308 309 310 311 314 317 319 322 324 325 325 325 325 323 321 320 319 316 314 315 316 316 319 324 324 309 286 275 277 286 293 289 278 265 254 251 249 240 234 231 213 189 183 187 191 191 192 193 193 193 193 193 195 197 198 200